Location: Tucson
(32.2217°N, 110.9265°W)
Time: 16:14:28
(UTC-07:00)

Transit 2A Rocket - Pass Details

Date: 15 August 2022
Orbit: 593 x 908 km, 66.7° (Epoch: 26 September)

Event Time Altitude Azimuth Distance (km) Brightness Sun altitude
Rises 03:18:23 0° 334° (NNW) 2,895 8.2 -28.4°
Reaches altitude 10° 03:20:35 10° 335° (NNW) 2,016 7.3 -28.1°
Enters shadow 03:22:20 24° 335° (NNW) 1,344 6.4 -27.8°
